sat.trackr.live / text

‹ back to catalog

STARLINK-34344

NORAD 64159 · 2025-112P

PAYLOAD ACTIVE UNKNOWN

§ Identity

Operator
Country
US
Launch date
2025-05-27
Launch site
AFWTR
Launch vehicle
Mass (kg)
RCS (m²)

Purposes: comms

External: N2YO · Heavens-Above · Gunter

§ Orbital elements

Epoch: 2026-05-25T02:34:09.930432Z

Period
95.64 min
Inclination
97.4530°
Eccentricity
0.0003768
Mean motion
15.05682321 rev/d
Perigee alt
546.8 km
Apogee alt
552.0 km
Semi-major
6,927.5 km
B*
3.1941e-4
RAAN
196.4315°
Arg perigee
118.2189°
Mean anomaly
241.9419°
Rev number
5,480

§ Raw data

STARLINK-343441 64159U 25112P   26145.10705938  .00004557  00000+0  31941-3 0  99982 64159  97.4530 196.4315 0003768 118.2189 241.9419 15.05682321 54808

JSON: /api/v1/satellites/64159 · /tle

For live sub-satellite position, see the globe view (requires WebGL).

§ Visibility from observer

Set your observer location to see the next 7 days of passes ≥ 10°. The values pass through the URL so the page stays shareable.

No JS? Fill the form by hand. The geolocation button needs JavaScript.